RYR23BF EGPH-EIDW

Flight info

Callsign RYR23BF
Flight time 0h 42m
Altitude 22000
Route GOSAM P600 TRN DCT BLACA P620 NIMAT NIMAT4L
Aircraft B38M/M-SDE1FGHILORVWXY/HB1

Departure

Time 2026-05-03 21:20
Airport Edinburgh Airport (EGPH)

Arrival

Time 2026-05-03 22:02
Airport Dublin Airport (EIDW)
Time Latitude Longitude Altitude Speed Heading
2026-05-03 21:06 55.94580 -3.36733 116 ft 0 kts 359°
2026-05-03 21:06 55.94582 -3.36733 116 ft 1 kts 359°
2026-05-03 21:07 55.94611 -3.36734 117 ft 8 kts 360°
2026-05-03 21:07 55.94684 -3.36735 119 ft 13 kts 359°
2026-05-03 21:07 55.94773 -3.36765 116 ft 7 kts 343°
2026-05-03 21:07 55.94811 -3.36776 119 ft 5 kts 357°
2026-05-03 21:08 55.94847 -3.36779 119 ft 5 kts 357°
2026-05-03 21:08 55.94882 -3.36793 118 ft 5 kts 339°
2026-05-03 21:08 55.94912 -3.36824 116 ft 5 kts 317°
2026-05-03 21:08 55.94923 -3.36883 118 ft 5 kts 265°
2026-05-03 21:09 55.94907 -3.36951 116 ft 7 kts 241°
2026-05-03 21:09 55.94879 -3.37035 117 ft 10 kts 238°
2026-05-03 21:09 55.94833 -3.37170 117 ft 17 kts 238°
2026-05-03 21:09 55.94769 -3.37359 116 ft 18 kts 239°
2026-05-03 21:10 55.94706 -3.37546 115 ft 17 kts 239°
2026-05-03 21:10 55.94645 -3.37726 115 ft 17 kts 238°
2026-05-03 21:10 55.94586 -3.37898 115 ft 16 kts 238°
2026-05-03 21:10 55.94529 -3.38067 117 ft 16 kts 238°
2026-05-03 21:11 55.94474 -3.38230 116 ft 15 kts 239°
2026-05-03 21:11 55.94420 -3.38389 116 ft 15 kts 238°
2026-05-03 21:11 55.94368 -3.38541 117 ft 14 kts 238°
2026-05-03 21:11 55.94318 -3.38688 116 ft 14 kts 238°
2026-05-03 21:12 55.94281 -3.38818 118 ft 8 kts 264°
2026-05-03 21:12 55.94306 -3.38887 116 ft 3 kts 329°
2026-05-03 21:12 55.94310 -3.38892 116 ft 0 kts 331°
2026-05-03 21:12 55.94312 -3.38893 117 ft 0 kts 331°
2026-05-03 21:13 55.94312 -3.38894 117 ft 0 kts 331°
2026-05-03 21:15 55.94314 -3.38895 148 ft 1 kts 331°
2026-05-03 21:16 55.94340 -3.38922 117 ft 9 kts 329°
2026-05-03 21:16 55.94408 -3.38969 116 ft 10 kts 24°
2026-05-03 21:16 55.94428 -3.38933 116 ft 0 kts 57°
2026-05-03 21:19 55.94450 -3.38866 115 ft 30 kts 59°
2026-05-03 21:19 55.94721 -3.38067 116 ft 117 kts 59°
2026-05-03 21:19 55.95254 -3.36487 367 ft 166 kts 60°
2026-05-03 21:20 55.95869 -3.34673 1381 ft 178 kts 56°
2026-05-03 21:20 55.96698 -3.33046 2442 ft 190 kts 42°
2026-05-03 21:20 55.97811 -3.31563 3265 ft 210 kts 37°
2026-05-03 21:20 55.98990 -3.29822 4039 ft 229 kts 46°
2026-05-03 21:21 56.00331 -3.28087 4833 ft 251 kts 21°
2026-05-03 21:21 56.02122 -3.27867 5547 ft 269 kts 348°
2026-05-03 21:21 56.03750 -3.29466 5788 ft 272 kts 312°
2026-05-03 21:21 56.04558 -3.32470 5900 ft 273 kts 276°
2026-05-03 21:22 56.04277 -3.35790 5981 ft 273 kts 245°
2026-05-03 21:22 56.03397 -3.38812 5990 ft 276 kts 243°
2026-05-03 21:22 56.02616 -3.41900 5994 ft 276 kts 246°
2026-05-03 21:22 56.01925 -3.45089 5996 ft 275 kts 250°
2026-05-03 21:23 56.01322 -3.48330 6002 ft 275 kts 251°
2026-05-03 21:23 56.00771 -3.51599 6000 ft 275 kts 253°
2026-05-03 21:23 56.00252 -3.54899 6024 ft 278 kts 254°
2026-05-03 21:23 55.99747 -3.58231 6768 ft 276 kts 253°
2026-05-03 21:24 55.99255 -3.61557 7890 ft 280 kts 254°
2026-05-03 21:24 55.98760 -3.64948 8968 ft 284 kts 254°
2026-05-03 21:24 55.98266 -3.68356 9975 ft 290 kts 254°
2026-05-03 21:24 55.97755 -3.71900 10755 ft 303 kts 254°
2026-05-03 21:25 55.97212 -3.75662 11254 ft 323 kts 254°
2026-05-03 21:25 55.96637 -3.79646 11850 ft 338 kts 253°
2026-05-03 21:25 55.96040 -3.83765 12582 ft 347 kts 255°
2026-05-03 21:25 55.95434 -3.87947 13570 ft 349 kts 254°
2026-05-03 21:26 55.94820 -3.92170 14361 ft 354 kts 253°
2026-05-03 21:26 55.94200 -3.96424 15211 ft 355 kts 253°
2026-05-03 21:26 55.93372 -4.00584 15937 ft 357 kts 238°
2026-05-03 21:26 55.91835 -4.04032 16710 ft 358 kts 220°
2026-05-03 21:27 55.89869 -4.06671 17386 ft 361 kts 214°
2026-05-03 21:27 55.87808 -4.09255 18193 ft 360 kts 214°
2026-05-03 21:27 55.85798 -4.11724 18302 ft 345 kts 213°
2026-05-03 21:27 55.83839 -4.14100 18106 ft 336 kts 213°
2026-05-03 21:28 55.81926 -4.16399 17929 ft 327 kts 213°
2026-05-03 21:28 55.80057 -4.18633 17758 ft 324 kts 213°
2026-05-03 21:28 55.78154 -4.20961 18069 ft 340 kts 214°
2026-05-03 21:28 55.76171 -4.23428 18387 ft 355 kts 214°
2026-05-03 21:29 55.74139 -4.25945 18759 ft 366 kts 214°
2026-05-03 21:29 55.72046 -4.28533 19397 ft 368 kts 214°
2026-05-03 21:29 55.69940 -4.31146 20021 ft 371 kts 214°
2026-05-03 21:29 55.67809 -4.33784 20599 ft 375 kts 214°
2026-05-03 21:30 55.65663 -4.36438 21247 ft 377 kts 214°
2026-05-03 21:30 55.63503 -4.39104 21822 ft 381 kts 214°
2026-05-03 21:30 55.61310 -4.41809 21954 ft 391 kts 214°
2026-05-03 21:30 55.59044 -4.44599 21951 ft 400 kts 214°
2026-05-03 21:31 55.56742 -4.47428 21974 ft 404 kts 213°
2026-05-03 21:31 55.54435 -4.50260 21997 ft 404 kts 213°
2026-05-03 21:31 55.52162 -4.53047 21993 ft 404 kts 213°
2026-05-03 21:31 55.49851 -4.55876 21992 ft 404 kts 213°
2026-05-03 21:32 55.47547 -4.58692 21992 ft 404 kts 213°
2026-05-03 21:32 55.45237 -4.61511 21993 ft 404 kts 213°
2026-05-03 21:32 55.42927 -4.64327 21992 ft 404 kts 213°
2026-05-03 21:32 55.40612 -4.67144 21993 ft 405 kts 213°
2026-05-03 21:33 55.38290 -4.69965 21973 ft 405 kts 213°
2026-05-03 21:33 55.35974 -4.72776 21968 ft 405 kts 213°
2026-05-03 21:33 55.33685 -4.75551 21968 ft 405 kts 213°
2026-05-03 21:33 55.31345 -4.78310 21957 ft 404 kts 208°
2026-05-03 21:34 55.28845 -4.80565 21972 ft 404 kts 206°
2026-05-03 21:34 55.26335 -4.82791 21964 ft 404 kts 206°
2026-05-03 21:34 55.23822 -4.85006 21968 ft 404 kts 206°
2026-05-03 21:34 55.21309 -4.87214 21966 ft 404 kts 206°
2026-05-03 21:35 55.18792 -4.89421 21968 ft 404 kts 206°
2026-05-03 21:35 55.16280 -4.91622 21961 ft 404 kts 206°
2026-05-03 21:35 55.13791 -4.93798 21962 ft 406 kts 206°
2026-05-03 21:35 55.11266 -4.96002 21976 ft 405 kts 205°
2026-05-03 21:36 55.08752 -4.98195 21965 ft 405 kts 205°
2026-05-03 21:36 55.06233 -5.00388 21967 ft 405 kts 205°
2026-05-03 21:36 55.03714 -5.02579 21962 ft 405 kts 205°
2026-05-03 21:36 55.01193 -5.04768 21974 ft 405 kts 205°
2026-05-03 21:37 54.98672 -5.06953 21962 ft 404 kts 205°
2026-05-03 21:37 54.96155 -5.09133 21966 ft 405 kts 205°
2026-05-03 21:37 54.93666 -5.11285 21962 ft 405 kts 205°
2026-05-03 21:37 54.91149 -5.13459 21964 ft 405 kts 205°
2026-05-03 21:38 54.88605 -5.15550 21953 ft 404 kts 199°
2026-05-03 21:38 54.85880 -5.16709 21977 ft 404 kts 192°
2026-05-03 21:38 54.83133 -5.17766 21953 ft 404 kts 192°
2026-05-03 21:38 54.80382 -5.18806 21962 ft 405 kts 192°
2026-05-03 21:39 54.77629 -5.19829 21962 ft 405 kts 192°
2026-05-03 21:39 54.74876 -5.20844 21962 ft 404 kts 191°
2026-05-03 21:39 54.72132 -5.21853 21959 ft 404 kts 191°
2026-05-03 21:39 54.69376 -5.22863 21960 ft 404 kts 191°
2026-05-03 21:40 54.66623 -5.23871 21960 ft 404 kts 191°
2026-05-03 21:40 54.63912 -5.24862 21959 ft 404 kts 191°
2026-05-03 21:40 54.61154 -5.25869 21962 ft 406 kts 191°
2026-05-03 21:40 54.58392 -5.26876 21956 ft 406 kts 191°
2026-05-03 21:41 54.55629 -5.27882 21958 ft 406 kts 191°
2026-05-03 21:41 54.52865 -5.28887 21958 ft 406 kts 191°
2026-05-03 21:41 54.50101 -5.29900 21957 ft 406 kts 193°
2026-05-03 21:41 54.47476 -5.31648 21968 ft 406 kts 205°
2026-05-03 21:42 54.44962 -5.33756 21956 ft 407 kts 205°
2026-05-03 21:42 54.42420 -5.35880 21970 ft 407 kts 205°
2026-05-03 21:42 54.39883 -5.38014 21967 ft 405 kts 205°
2026-05-03 21:42 54.37360 -5.40140 21946 ft 404 kts 205°
2026-05-03 21:43 54.34834 -5.42268 21958 ft 405 kts 205°
2026-05-03 21:43 54.32303 -5.44397 21941 ft 405 kts 205°
2026-05-03 21:43 54.29778 -5.46520 21956 ft 405 kts 205°
2026-05-03 21:43 54.27245 -5.48645 21950 ft 405 kts 205°
2026-05-03 21:44 54.24716 -5.50765 21952 ft 405 kts 205°
2026-05-03 21:44 54.22248 -5.52830 21957 ft 391 kts 205°
2026-05-03 21:44 54.19853 -5.54833 21793 ft 378 kts 205°
2026-05-03 21:44 54.17497 -5.56799 21270 ft 375 kts 205°
2026-05-03 21:45 54.15165 -5.58744 20822 ft 371 kts 205°
2026-05-03 21:45 54.12853 -5.60669 20276 ft 370 kts 205°
2026-05-03 21:45 54.10546 -5.62587 19805 ft 368 kts 205°
2026-05-03 21:45 54.08253 -5.64491 19345 ft 365 kts 205°
2026-05-03 21:46 54.05973 -5.66383 18889 ft 363 kts 205°
2026-05-03 21:46 54.03768 -5.68515 18093 ft 371 kts 218°
2026-05-03 21:46 54.01978 -5.71654 17223 ft 379 kts 229°
2026-05-03 21:46 54.00279 -5.75126 16323 ft 384 kts 229°
2026-05-03 21:47 53.98578 -5.78575 15474 ft 378 kts 229°
2026-05-03 21:47 53.96904 -5.81965 14689 ft 371 kts 229°
2026-05-03 21:47 53.95266 -5.85279 14079 ft 363 kts 229°
2026-05-03 21:47 53.93647 -5.88549 13628 ft 360 kts 229°
2026-05-03 21:48 53.92041 -5.91787 13135 ft 358 kts 229°
2026-05-03 21:48 53.90444 -5.95000 12685 ft 354 kts 229°
2026-05-03 21:48 53.88863 -5.98178 12243 ft 351 kts 229°
2026-05-03 21:48 53.87317 -6.01280 11823 ft 348 kts 229°
2026-05-03 21:49 53.85764 -6.04393 11400 ft 345 kts 229°
2026-05-03 21:49 53.84223 -6.07478 11067 ft 340 kts 228°
2026-05-03 21:49 53.82721 -6.10483 10903 ft 329 kts 229°
2026-05-03 21:49 53.81278 -6.13369 10748 ft 312 kts 229°
2026-05-03 21:50 53.79915 -6.16094 10601 ft 295 kts 229°
2026-05-03 21:50 53.78621 -6.18675 10457 ft 280 kts 228°
2026-05-03 21:50 53.77384 -6.21137 10329 ft 270 kts 229°
2026-05-03 21:50 53.76585 -6.22727 10237 ft 265 kts 229°
2026-05-03 21:51 53.75023 -6.25828 10074 ft 263 kts 228°
2026-05-03 21:51 53.73811 -6.28229 9922 ft 273 kts 228°
2026-05-03 21:51 53.72565 -6.30696 9622 ft 278 kts 229°
2026-05-03 21:51 53.71307 -6.33186 9282 ft 280 kts 229°
2026-05-03 21:52 53.70048 -6.35677 8973 ft 278 kts 229°
2026-05-03 21:52 53.69215 -6.37322 8760 ft 277 kts 229°
2026-05-03 21:52 53.67971 -6.39777 8466 ft 275 kts 229°
2026-05-03 21:52 53.66735 -6.42215 8173 ft 272 kts 229°
2026-05-03 21:53 53.65111 -6.45410 7775 ft 270 kts 229°
2026-05-03 21:53 53.63895 -6.47802 7484 ft 268 kts 229°
2026-05-03 21:53 53.62685 -6.50180 7196 ft 266 kts 229°
2026-05-03 21:53 53.61486 -6.52535 6895 ft 264 kts 229°
2026-05-03 21:54 53.60693 -6.54092 6716 ft 263 kts 229°
2026-05-03 21:54 53.59504 -6.56422 6432 ft 262 kts 229°
2026-05-03 21:54 53.58320 -6.58741 6151 ft 260 kts 229°
2026-05-03 21:54 53.57157 -6.61018 5992 ft 253 kts 229°
2026-05-03 21:55 53.55673 -6.63921 5816 ft 241 kts 229°
2026-05-03 21:55 53.54510 -6.65870 5653 ft 233 kts 210°
2026-05-03 21:55 53.53517 -6.66574 5522 ft 227 kts 192°
2026-05-03 21:55 53.51988 -6.66950 5372 ft 214 kts 186°
2026-05-03 21:56 53.50593 -6.67242 5229 ft 196 kts 185°
2026-05-03 21:56 53.49295 -6.67489 5075 ft 180 kts 185°
2026-05-03 21:56 53.48100 -6.67687 4935 ft 166 kts 179°
2026-05-03 21:56 53.46996 -6.67142 4737 ft 170 kts 144°
2026-05-03 21:57 53.46238 -6.65644 4545 ft 173 kts 109°
2026-05-03 21:57 53.45958 -6.63647 4349 ft 182 kts 100°
2026-05-03 21:57 53.45714 -6.61511 4111 ft 188 kts 98°
2026-05-03 21:57 53.45509 -6.59356 3886 ft 186 kts 96°
2026-05-03 21:58 53.45344 -6.57218 3645 ft 182 kts 95°
2026-05-03 21:58 53.45205 -6.55127 3432 ft 175 kts 94°
2026-05-03 21:58 53.45087 -6.53179 3203 ft 167 kts 93°
2026-05-03 21:58 53.44975 -6.51270 2978 ft 160 kts 93°
2026-05-03 21:59 53.44870 -6.49447 2795 ft 154 kts 92°
2026-05-03 21:59 53.44772 -6.47669 2566 ft 153 kts 93°
2026-05-03 21:59 53.44675 -6.45896 2368 ft 152 kts 92°
2026-05-03 21:59 53.44580 -6.44127 2153 ft 152 kts 93°
2026-05-03 22:00 53.44485 -6.42368 1951 ft 151 kts 94°
2026-05-03 22:00 53.44390 -6.40621 1754 ft 149 kts 94°
2026-05-03 22:00 53.44299 -6.38932 1553 ft 144 kts 94°
2026-05-03 22:00 53.44208 -6.37285 1365 ft 141 kts 94°
2026-05-03 22:01 53.44131 -6.35661 1162 ft 139 kts 95°
2026-05-03 22:01 53.44043 -6.34039 921 ft 140 kts 95°
2026-05-03 22:01 53.43964 -6.32427 777 ft 139 kts 95°
2026-05-03 22:01 53.43878 -6.30813 606 ft 138 kts 96°
2026-05-03 22:02 53.43773 -6.29225 419 ft 137 kts 97°
2026-05-03 22:02 53.43688 -6.27643 238 ft 135 kts 93°
2026-05-03 22:02 53.43618 -6.26267 222 ft 97 kts 95°
2026-05-03 22:02 53.43568 -6.25445 212 ft 38 kts 100°
2026-05-03 22:03 53.43475 -6.25073 214 ft 27 kts 119°
2026-05-03 22:03 53.43438 -6.24967 214 ft 2 kts 122°
2026-05-03 22:03 53.43416 -6.24908 215 ft 12 kts 120°
2026-05-03 22:03 53.43369 -6.24750 219 ft 20 kts 106°
2026-05-03 22:04 53.43351 -6.24502 214 ft 21 kts 94°
2026-05-03 22:04 53.43294 -6.24405 217 ft 13 kts 181°
2026-05-03 22:04 53.43215 -6.24421 220 ft 8 kts 202°
2026-05-03 22:04 53.43190 -6.24497 213 ft 0 kts 273°
2026-05-03 22:05 53.43190 -6.24498 213 ft 0 kts 273°
2026-05-03 22:05 53.43191 -6.24522 213 ft 4 kts 273°
2026-05-03 22:05 53.43194 -6.24587 213 ft 7 kts 275°
2026-05-03 22:06 53.43208 -6.24663 219 ft 6 kts 313°
2026-05-03 22:06 53.43211 -6.24668 219 ft 0 kts 314°
2026-05-03 22:06 53.43212 -6.24669 219 ft 1 kts 317°
2026-05-03 22:06 53.43220 -6.24672 217 ft 2 kts 350°
2026-05-03 22:07 53.43244 -6.24673 213 ft 4 kts
2026-05-03 22:07 53.43264 -6.24670 216 ft 2 kts
2026-05-03 22:07 53.43271 -6.24669 214 ft 0 kts